Weather in Ciudad Victoria

Mexico     23°44′37″N   99°08′06″W
temp.,
°C
wind,
m/s
gust,
m/s
humid.,
%
clouds,
%
prec.,
mm/h
press.,
hPa
HPBL,
m
15 june, tue
tue1501:00+20wsw11885 7.0 101617
04:00+19w228986 0.0 101517
07:00+18wsw228711 0.0 101623
10:00+25ne225589 0.0 1016593
13:00+30ne34365 0.0 10151907
16:00+31ne35305 0.0 10132473
19:00+26e2253100 0.0 1014641
22:00+20sw229483 2.1 101775
16 june, wed
wed1601:00+20w228627 3.6 101717
04:00+19w22860 0.1 101520
07:00+18w218577 0.1 101514
10:00+24ne23650 0.0 1016614
13:00+28ne46510 0.2 10151639
16:00+30ne573571 0.1 10122887
19:00+22nne01736 0.3 101451
22:00+20wnw119084 5.0 101639
17 june, thu
thu1701:00+19w118820 9.1 101714
04:00+18wnw21898 0.0 101415
07:00+18w218916 0.0 101417
10:00+23nne24683 0.0 1015691
13:00+27nne46494 0.1 10141660
16:00+24nne466972 0.6 1013749
19:00+21n2486100 3.5 1014352
22:00+20wnw218791 8.6 101526
18 june, fri
fri1801:00+19w228751 9.4 101521
04:00+18w32882 0.0 101337
07:00+18w228610 0.0 101323
10:00+24ne236742 0.0 1014685
13:00+28ne34432 0.0 10121534
16:00+30nne343626 0.0 10101913
19:00+27ne124859 0.0 1009575
22:00+21wsw326427 0.0 101133
19 june, sat
sat1901:00+20wsw326670 0.0 101233
04:00+19wsw32665 0.0 101131
07:00+19wsw326654 0.0 101132
10:00+27sse114583 0.0 1011445
13:00+31e33357 0.0 10091738
16:00+32e333583 0.0 10072055
19:00+29sse344173 0.0 1008716
22:00+22ssw4566100 0.0 1010122